Location: Newark
(44.9956°N, 0.4447°W)
Time: 03:07:17
(UTC+00:00)

ISS - Visible Passes

Search period start: 17 July 2019 00:00
Search period end: 27 July 2019 00:00
Orbit: 409 x 418 km, 51.6° (Epoch: 17 July)

Date Brightness Start Highest point End Pass type
(mag) Time Alt. Az. Time Alt. Az. Time Alt. Az.
17 Jul -1.4 00:18:08 10° WNW 00:20:59 25° N 00:23:49 10° NE visible
17 Jul -2.1 01:55:10 10° NW 01:58:16 35° NNE 02:01:22 10° E visible
17 Jul -3.7 03:31:50 10° WNW 03:35:04 52° SW 03:38:17 10° SE visible
17 Jul -3.6 21:51:08 10° WSW 21:54:29 75° NNW 21:57:49 10° ENE visible
17 Jul -1.6 23:28:37 10° WNW 23:31:31 27° N 23:34:27 10° NE visible
18 Jul -1.7 01:05:52 10° NW 01:08:51 29° NNE 01:11:49 10° ENE visible
18 Jul -3.9 02:42:30 10° WNW 02:45:49 86° SW 02:49:08 10° ESE visible
18 Jul -3.9 21:01:52 10° SW 21:05:12 69° SSE 21:08:31 10° ENE visible
18 Jul -1.9 22:39:03 10° W 22:42:05 31° NNW 22:45:08 10° NE visible
19 Jul -1.5 00:16:32 10° NW 00:19:24 26° N 00:22:16 10° ENE visible
19 Jul -3.3 01:53:13 10° NW 01:56:31 62° NNE 01:59:49 10° ESE visible
19 Jul -2.5 03:30:21 10° W 03:32:57 21° SW 03:35:34 10° S visible
19 Jul -3.4 20:12:47 10° SW 20:15:58 41° SE 20:19:08 10° ENE visible
19 Jul -2.3 21:49:30 10° W 21:52:40 40° NNW 21:55:51 10° NE visible
19 Jul -1.4 23:27:05 10° WNW 23:29:56 25° N 23:32:45 10° ENE visible
20 Jul -2.6 01:03:57 10° NW 01:07:09 43° NNE 01:09:07 20° E visible
20 Jul -1.9 02:40:44 10° WNW 02:45:53 17° SSE 02:46:51 10° SSE visible
20 Jul -3.0 20:59:58 10° WSW 21:03:17 55° NNW 21:06:35 10° NE visible
20 Jul -1.5 22:37:34 10° WNW 22:40:26 25° N 22:43:17 10° NE visible
21 Jul -2.1 00:14:39 10° NW 00:17:43 33° NNE 00:18:02 33° NNE visible
21 Jul -1.6 21:47:59 10° WNW 21:50:57 28° N 21:53:53 10° NE visible
21 Jul -1.7 23:25:19 10° NW 23:28:16 28° N 23:29:25 22° NE visible
22 Jul -1.0 01:01:56 10° WNW 01:02:11 12° WNW 01:02:11 12° WNW visible
22 Jul -1.9 20:58:22 10° W 21:01:27 33° NNW 21:04:33 10° NE visible
22 Jul -1.6 22:35:54 10° NW 22:38:45 25° N 22:41:11 12° ENE visible
23 Jul -1.5 00:12:38 10° NW 00:13:59 22° NW 00:13:59 22° NW visible
23 Jul -2.4 20:08:47 10° W 20:12:01 43° NNW 20:15:14 10° NE visible
23 Jul -1.5 21:46:24 10° WNW 21:49:14 25° N 21:52:04 10° ENE visible
23 Jul -2.2 23:23:19 10° NW 23:25:55 36° N 23:25:55 36° N visible
24 Jul -1.6 20:56:48 10° WNW 20:59:42 26° N 21:02:35 10° NE visible
24 Jul -2.1 22:33:58 10° NW 22:37:01 31° NNE 22:37:57 27° NE visible
25 Jul -0.8 00:10:35 10° WNW 00:10:45 11° WNW 00:10:45 11° WNW visible
25 Jul -1.8 20:07:11 10° WNW 20:10:10 29° NNW 20:13:10 10° NE visible
25 Jul -1.8 21:44:33 10° NW 21:47:30 27° N 21:50:01 12° ENE visible
25 Jul -1.8 23:21:13 10° WNW 23:22:50 26° NW 23:22:50 26° NW visible
26 Jul -1.6 20:55:05 10° NW 20:57:56 25° N 21:00:47 10° ENE visible
26 Jul -3.0 22:31:51 10° NW 22:34:56 49° N 22:34:56 49° N visible
